User: anonymous   Login
Location: Newark
(35.6799°N, 139.7636°E)
Time: 15:24:56
(UTC+00:00)
Language:

Explorer 7 - Orbit

View from above orbital plane
View from above orbital plane
View from above satellite
View from above satellite

Ground track
Ground track

The orbit data is extracted from the following two-line orbital elements,

1    22U 59009A   19341.87079145 -.00000087 +00000-0 +16618-4 0  9998
2    22 050.2853 285.5684 0139928 243.0610 115.5985 14.95003109441561
Epoch (UTC): 07 December 2019 20:53:56
Eccentricity: 0.0139928
inclination: 50.2853°
perigee height: 485 km
apogee height: 680 km
right ascension of ascending node: 285.5684°
argument of perigee: 243.0610°
revolutions per day: 14.95003109
mean anomaly at epoch: 115.5985°
orbit number at epoch: 44156

The dashed part of the orbit path shows where the satellite is in the earth's shadow,  

DLR